Regional Weather Roundup
Issued by NWS

Home | Current Version | Previous Version | Graphics & Text | Print | Product List | Glossary On
Versions: 1 2 3 4 5 6 7 8 9 10 11 12 13 14 15 16 17 18 19 20 21 22 23 24 25 26 27
000
ASUS43 KDMX 222307
RWRIA

WEATHER ROUNDUP FOR IOWA
NATIONAL WEATHER SERVICE DES MOINES IA
600 PM CDT TUE APR 22 2014

NOTE: "FAIR" INDICATES FEW OR NO CLOUDS BELOW 12,000 FEET WITH NO
SIGNIFICANT WEATHER AND/OR OBSTRUCTIONS TO VISIBILITY.

* - THESE STATIONS ARE NOT NWS STATIONS...THUS NOT UNDER NWS
QUALITY CONTROL.  THEY ALSO DO NOT REPORT WEATHER SUCH
AS PRECIPITATION OR FOG.

IAZ001>003-012>014-020>022-031>034-043>046-230000-
   NORTHWEST IOWA

CITY           SKY/WX    TMP DP  RH WIND       PRES   REMARKS
CARROLL *      MOSUNNY   64  32  29 E9        30.01F
CHEROKEE *     PTSUNNY   64  32  29 SE7       30.00S
DENISON *      MOSUNNY   64  32  29 SE7       29.99F
LE MARS *      PTSUNNY   64  34  32 SE9G18    29.99F
ORANGE CITY *  PTSUNNY   64  27  24 S6        29.99F
SHELDON *      MOSUNNY   64  32  29 SE9       29.99S
SIOUX CITY     CLOUDY    67  33  28 SE15      29.98F
SPENCER        MOSUNNY   63  32  31 CALM      30.01F
STORM LAKE *   MOSUNNY   61  34  36 SE8G15    30.02F
$$

IAZ055>058-069>071-079>083-090>094-230000-
   SOUTHWEST IOWA

CITY           SKY/WX    TMP DP  RH WIND       PRES   REMARKS
ATLANTIC *     SUNNY     64  34  32 E9        30.00F
AUDUBON *      SUNNY     66  19  16 E5        30.02F
CLARINDA *     SUNNY     68  30  24 SE6       30.02S
COUNCIL BLFS * SUNNY     66  34  30 SE7G14    30.00S
CRESTON *      SUNNY     64  28  25 NE6G14    30.02F
HARLAN  *      SUNNY     66  32  28 SE7       30.04F
LAMONI         SUNNY     65  32  29 VRB5      30.03F
RED OAK *      SUNNY     66  34  30 E5G12     30.01S
SHENANDOAH *   HAZE      68  34  28 SE6       30.01S VSB 3/4
$$

IAZ047>049-059>061-072>074-084-230000-
   CENTRAL IOWA

CITY           SKY/WX    TMP DP  RH WIND       PRES   REMARKS
AMES           SUNNY     63  32  31 N5        30.03F
ANKENY *       SUNNY     64  32  29 NE9       30.03F
CHARITON *     SUNNY     64  32  29 N9        30.03F
DES MOINES     MOSUNNY   66  30  26 E3        30.02F
GRINNELL*      SUNNY     61  28  29 N6        30.04S
KNOXVILLE *    SUNNY     63  30  29 VRB3      30.02S
MARSHALLTOWN   SUNNY     61  32  33 N9        30.03F
NEWTON *       SUNNY     63  30  29 N12       30.04S
PELLA *        SUNNY     64  32  29 N7        30.04S
PERRY *          N/A     64  23  20 CALM      30.03S
$$

IAZ004>006-015-016-023>025-035-036-230000-
   NORTH CENTRAL IOWA

CITY           SKY/WX    TMP DP  RH WIND       PRES   REMARKS
ALGONA *       SUNNY     61  32  33 CALM      30.04S
CLARION *      SUNNY     61  34  36 N9        30.04F
ESTHERVILLE    SUNNY     61  31  32 NE3       30.02F
FORT DODGE *   SUNNY     63  34  34 E3        30.04F
MASON CITY     SUNNY     59  33  37 N8        30.06S
FOREST CITY *  SUNNY     57  32  38 N3        30.04S
IOWA FALLS *     N/A     61  32  33 NW6       30.05F
$$

IAZ007>011-017>019-026>030-037>042-050>054-066-230000-
   NORTHEAST IOWA

CITY           SKY/WX    TMP DP  RH WIND       PRES   REMARKS
CEDAR RAPIDS   SUNNY     60  30  32 NW12G21   30.01F
CHARLES CITY * SUNNY     55  34  44 NW13      30.05S
CLINTON *      MOSUNNY   61  25  25 N15       30.02F
DECORAH *      SUNNY     55  27  33 NW15      30.01S
DUBUQUE        SUNNY     57  26  30 N14       30.01R
MONTICELLO *   SUNNY     59  28  31 N13       30.01S
OELWEIN *      SUNNY    N/A N/A N/A NW13G18   30.04R
WATERLOO       SUNNY     59  33  37 N5G17     30.03F
$$

IAZ064-065-067-068-078-230000-
   EAST CENTRAL IOWA

CITY           SKY/WX    TMP DP  RH WIND       PRES   REMARKS
DAVENPORT      MOSUNNY   62  26  25 N14       30.00S
IOWA CITY      SUNNY     62  31  31 NW14      30.02F
MT. PLEASANT * SUNNY     64  21  19 NW14      30.02R
MUSCATINE *    SUNNY     63  28  27 N14       30.01S
QUAD CITIES    MOSUNNY   63  25  23 N9        29.98F
$$

IAZ062-063-075>077-085>089-095>099-230000-
   SOUTHEAST IOWA

CITY           SKY/WX    TMP DP  RH WIND       PRES   REMARKS
BURLINGTON     SUNNY     64  27  24 N17       30.00F
FAIRFIELD *    SUNNY     63  30  29 N12       30.02F
FORT MADISON * SUNNY     64  30  27 N13       30.02S
KEOKUK *       SUNNY     64  32  29 NW10G17   30.01S
OSKALOOSA *      N/A     64  30  27 N13       30.03S
CENTERVILLE *  SUNNY     63  32  31 N7        30.05S
OTTUMWA        SUNNY     64  31  28 N9        30.02F
WASHINGTON *   SUNNY     63  30  29 N13G20    30.02S
$$

ABBREVIATIONS USED IN REMARKS
   TC - TEMPERATURES IN CELSIUS
  WCI - WIND CHILL INDEX
   HX - HEAT INDEX
  VSB - VISIBILITY
$$




USA.gov is the U.S. government's official web portal to all federal, state and local government web resources and services.